User: anonymous   Login
Location: Feydey
(46.3431°N, 7.0106°E)
Time: 00:22:35
(UTC+00:00)
Language:

NOSS 2-3 (C) - Orbit

View from above orbital plane
View from above orbital plane
View from above satellite
View from above satellite

Ground track
Ground track

The orbit data is extracted from the following two-line orbital elements,

1 23908U 96029C   21222.73817834 0.00000000  00000-0  00000-0 0    01
2 23908  63.3550 111.2805 0737090  25.7925 334.2075 13.40967074    05
Epoch (UTC): 10 August 2021 17:42:58
Eccentricity: 0.0737090
inclination: 63.3550°
perigee height: 554 km
apogee height: 1657 km
right ascension of ascending node: 111.2805°
argument of perigee: 25.7925°
revolutions per day: 13.40967074
mean anomaly at epoch: 334.2075°
orbit number at epoch: 0

The dashed part of the orbit path shows where the satellite is in the earth's shadow,  

DLR